sat.trackr.live / text

‹ back to catalog

TJS-7

NORAD 49115 · 2021-077A

PAYLOAD ACTIVE UNKNOWN

§ Identity

Operator
Country
PRC
Launch date
2021-08-24
Launch site
XICLF
Launch vehicle
Mass (kg)
RCS (m²)

Purposes: comms

External: N2YO · Heavens-Above · Gunter

§ Orbital elements

Epoch: 2026-05-25T03:34:38.683776Z

Period
1,436.10 min
Inclination
0.4514°
Eccentricity
0.0002216
Mean motion
1.00271406 rev/d
Perigee alt
35,777.4 km
Apogee alt
35,796.0 km
Semi-major
42,164.8 km
B*
0.0000e+0
RAAN
86.3107°
Arg perigee
318.8981°
Mean anomaly
151.7359°
Rev number
932

§ Raw data

TJS-71 49115U 21077A   26145.14905884 -.00000126  00000+0  00000+0 0  99922 49115   0.4514  86.3107 0002216 318.8981 151.7359  1.00271406  9326

JSON: /api/v1/satellites/49115 · /tle

For live sub-satellite position, see the globe view (requires WebGL).

§ Visibility from observer

Set your observer location to see the next 7 days of passes ≥ 10°. The values pass through the URL so the page stays shareable.

No JS? Fill the form by hand. The geolocation button needs JavaScript.